Showing default

HULIANWANG DIGUI-156, 68130

Orbit data source: Space-Track

HULIANWANG DIGUI-156, 68130 is a payload satellite owned by Zhongguo Xingwang (CN) in LEO that was launched on Thu, 12 Mar 2026 UTC via a CHANG ZHENG 8A launch vehicle from the Wenchang Satellite Launch Center (WSC). Payload-class satellites include a variety of spacecraft equipped with specific instruments for various scientific and technological missions. These include communications satellites like Starlink; space stations such as the ISS; scientific satellites like the Hubble; Earth observation satellites from companies like Planet Labs, Umbra, and HawkEye 360; GPS; miniature CubeSats for education and research; and military/defense satellites.

Loading next visibility...
Identifier
68130, 2026-047B
Orbit
LEO
Country
Flag of CNCN / PRC
Related business
Manufacturer
CAST?
Mission
Operational spacecraft
Bus & Motor
XINGWANG C, Unknown motor
Mass
~700 kg wet, ~700 kg dry
Launch date (UTC)
2026-03-12 (2 months ago)
Launch vehicle
CHANG ZHENG 8A
Launch site
Wenchang Satellite Launch Center (WSC)
Object type
Payload
Rocket body
Debris
Shape & HBR
Unknown shape, 1.1 m
Radar Cross Section
RCS unknown

Expand to show TLE details & history
Last TLE update: 1 day ago

TLE from 1 day ago
0 HULIANWANG DIGUI-156
1 68130U 26047B   26118.57601307 -.00000113  00000-0  27493-4 0  9999
2 68130  50.0059 234.6589 0000771 322.5452  37.5373 13.43702527  6451
Epoch: 2026-04-28T13:49Z
TLE epoch observation values (Epoch: 2026-04-28T13:49:27.529Z)
Latitude
0.00002°
Longitude
170.74487°
Altitude
1,095.572 km
Speed
7.306 km/s
True Right ascension
15h 38m 38s
True Declination
0° 00' 00"
Sunlit
Object was in full shadow at epoch
Visualization orbit readout
Latitude
Unknown
Longitude
Unknown
Altitude
Unknown
Speed
Unknown
Apparent Right ascension
Unknown
Apparent Declination
Unknown
Sunlit
N/A
Visualization observer readout
Local Sidereal Time
21:32:16
Azimuth
Unknown
Elevation
Unknown
Doppler factor
Unknown
Orbital elements
Apogee altitude
1,096.804 km
Perigee altitude
1,095.652 km
Semi-major axis
7,474.365 km
Eccentricity
0.00008
Inclination
50.0059°
RAAN
234.6589°
Arg. of periapsis
322.5452°
True anomaly
37.54268°
Mean anomaly
37.5373°
Eccentric anomaly
37.53999°
Mean motion
3.35878 °/min
Orbital period
107.18 mins
BSTAR
0.000027493
Loading maneuver chart data...
Computing Atmospheric mass density...
Loading historical data...
Loading historical data...
Loading historical data...
Loading historical data...
Loading historical data...
Loading historical data...
Loading historical data...

Documentation

Showing up to 5 results
|